Location: Horowhenua
(40.7500°S, 175.3333°E)
Time: 13:26:23
(UTC+00:00)

MOZ.5/SAFIR/RUBIN 5/SL-8 - Pass Details

Date: 28 January 2023
Orbit: 675 x 704 km, 98.2° (Epoch: 28 March)

Event Time Altitude Azimuth Distance (km) Brightness Sun altitude
Rises 14:03:30 0° 162° (SSE) 3,079 8.4 -27.3°
Reaches altitude 10° 14:05:50 10° 156° (SSE) 2,159 7.3 -27.1°
Maximum altitude 14:10:25 48° 81° (E) 904 4.4 -26.8°
Enters shadow 14:10:27 48° 78° (ENE) 904 4.4 -26.8°
